Wind_Speed
34 34 32 32 30 30 31 28 26 23 23 19 14 14 10 10 9 11 12 10 7 7 3 4 5 4 8 10 12 13 18 21 22 26 27 23 6 13 22 21 25 28 21 19 21 23 23 25 19
35 36 31 29 33 32 29 30 29 25 20 13 13 11 9 8 8 10 12 13 13 11 11 11 6 5 4 6 8 10 15 15 18 23 26 26 23 6 11 19 23 21 20 21 20 22 24 19 16
33 33 30 29 23 30 29 26 22 19 16 16 13 11 12 11 10 11 11 10 13 12 11 9 8 7 6 4 4 5 11 11 15 17 22 23 26 22 7 4 8 13 16 18 19 20 17 15 12
37 35 33 30 26 22 23 25 22 19 18 17 15 15 16 14 13 13 13 11 10 11 13 13 12 11 7 7 6 6 5 6 13 15 16 19 20 22 19 15 7 5 9 12 14 16 15 13 11
41 38 36 33 29 25 22 23 21 20 19 19 20 20 19 18 17 15 14 12 11 10 10 12 12 14 12 12 13 11 8 6 8 12 10 13 15 16 17 15 14 14 13 7 9 15 13 13 13
43 43 41 36 34 32 27 26 26 25 22 20 22 21 19 18 18 17 15 14 14 13 14 12 12 14 14 16 15 16 11 10 9 10 6 10 11 11 12 13 14 12 10 8 8 9 6 5 6
45 44 40 39 37 34 32 28 29 25 24 22 20 20 19 19 18 18 17 15 15 15 15 14 14 15 15 15 14 15 14 11 13 11 6 6 9 11 11 11 12 13 12 11 8 6 5 3 5
49 46 45 40 37 37 34 32 30 27 23 22 23 23 22 22 21 21 18 17 17 17 16 15 13 11 11 10 12 13 13 14 12 13 14 10 10 10 11 10 9 11 13 15 15 15 13 11 12
51 48 47 43 40 40 36 35 32 31 27 26 26 24 24 23 21 20 20 19 17 16 15 12 10 7 7 7 8 9 11 12 15 15 14 13 15 16 16 14 12 14 13 15 16 18 18 20 21
53 51 48 42 44 45 39 38 35 33 31 30 27 25 23 22 21 19 17 15 16 17 16 14 12 12 12 13 12 12 11 12 14 15 16 18 17 17 18 19 20 22 21 20 20 21 22 22 24
55 53 47 47 46 47 43 41 38 36 34 32 29 27 26 24 24 21 20 18 18 19 19 19 18 19 19 19 19 18 19 19 19 19 18 19 21 21 20 22 25 24 25 25 28 29 30 30 32
58 54 51 50 47 45 44 44 42 39 36 35 33 29 28 27 26 23 24 24 24 25 26 26 27 26 25 25 24 24 25 25 25 25 25 25 25 24 24 25 28 29 30 30 29 30 32 35 37
60 57 53 51 50 47 45 47 42 42 41 38 37 34 33 31 29 27 27 30 30 29 30 29 30 30 29 29 30 32 32 32 32 32 30 30 30 30 30 31 30 30 34 37 37 39 38 38 39
64 60 56 53 52 50 50 49 46 48 45 43 42 40 39 36 33 32 33 35 35 35 35 35 35 35 35 35 36 37 38 39 38 36 35 34 32 32 34 35 35 35 37 38 39 41 45 48 47
66 65 60 56 55 52 52 49 51 54 48 48 47 45 45 43 40 37 37 38 40 40 41 40 40 40 40 41 41 42 42 44 41 39 37 36 32 34 34 34 35 36 38 42 46 47 48 51 53
72 69 64 61 60 57 57 53 57 53 50 52 50 48 48 45 42 40 40 43 47 46 47 47 46 46 46 46 46 47 47 46 45 43 44 41 38 39 40 41 42 41 42 44 45 47 50 51 51
75 71 69 67 64 63 60 58 60 56 54 53 50 51 52 51 49 47 47 52 52 51 51 51 52 52 52 53 52 52 52 51 50 52 51 50 49 48 48 50 49 49 50 53 55 53 52 54 54
79 79 76 74 71 67 63 61 64 60 59 56 54 55 56 55 55 53 52 58 57 58 57 57 57 57 57 57 57 57 58 58 58 57 59 57 59 57 55 56 59 59 60 62 62 62 61 59 61
84 81 81 79 77 74 68 66 66 65 62 59 61 60 59 59 59 55 59 63 62 64 63 62 62 63 64 63 63 63 63 64 64 64 64 64 64 64 62 63 65 66 66 69 71 70 70 68 65
86 86 86 85 82 80 78 71 71 67 66 66 63 64 65 65 65 61 66 66 65 63 61 63 65 66 66 67 66 66 67 69 69 69 69 69 71 70 70 71 71 73 74 74 75 77 77 75 74
86 87 88 88 85 84 85 76 74 71 69 68 68 71 70 71 72 69 72 72 68 66 64 62 62 62 63 66 70 72 73 72 68 68 69 71 72 75 77 78 79 80 81 81 81 82 83 83 83
85 87 88 86 84 85 87 77 74 73 71 71 73 75 77 78 78 75 76 75 70 68 67 66 67 69 70 70 71 71 71 71 71 72 72 74 76 80 83 85 87 87 87 86 87 88 89 86 86
88 89 87 86 85 86 84 81 72 76 74 75 77 80 82 81 83 82 78 74 71 70 73 74 72 75 76 77 77 77 77 78 79 80 82 84 85 86 90 90 90 90 91 92 91 90 91 93 94
91 90 89 90 90 83 84 82 72 75 75 75 76 77 79 80 83 81 79 78 79 79 79 78 78 78 79 81 83 84 86 87 87 87 88 90 89 88 90 93 95 94 93 94 95 95 96 98 101
98 96 96 97 95 83 85 86 71 77 76 78 79 79 79 79 81 83 84 84 85 85 85 86 87 87 87 89 90 91 91 91 92 95 95 94 95 97 96 95 94 98 99 101 100 102 104 106 108
107 105 105 105 103 99 97 83 77 77 79 82 85 83 82 84 87 89 90 89 90 90 91 91 92 93 94 94 95 95 96 98 99 101 101 101 101 102 104 103 104 104 106 106 107 109 111 111 112
109 108 111 111 108 106 99 87 84 82 84 85 85 88 90 94 94 95 96 96 97 98 98 98 98 98 99 99 100 101 103 106 108 108 107 105 106 108 109 112 112 111 111 112 113 115 116 115 117
113 114 116 114 112 110 101 101 92 94 94 96 97 99 97 100 101 102 102 103 103 102 102 104 104 104 105 107 107 109 112 113 113 110 109 110 112 116 117 117 115 114 115 117 119 120 120 121 122
117 118 119 120 119 117 109 105 99 99 100 100 101 103 105 106 108 108 108 109 109 108 108 109 109 110 111 112 113 113 114 116 118 119 119 119 120 122 122 120 124 123 125 122 124 124 128 130 127
124 119 122 121 118 120 120 110 105 107 109 109 110 109 113 115 117 118 118 117 117 118 117 115 113 114 115 115 114 116 120 121 122 123 124 126 126 127 127 127 127 129 126 130 130 130 128 131 130
Wind_Direction
240 240 237 239 234 234 240 242 254 263 274 277 284 289 284 283 252 244 268 263 268 289 302 356 328 334 12 43 31 31 19 16 20 28 34 32 1 227 230 234 233 238 245 257 268 268 278 283 295
238 237 237 241 237 239 239 246 256 263 262 272 276 274 267 262 258 249 258 260 263 261 268 281 303 295 327 6 23 14 9 18 17 21 30 34 30 3 237 235 232 234 247 250 263 268 271 274 281
230 236 236 240 236 237 242 248 256 264 257 262 261 260 263 272 255 250 258 258 253 252 259 260 277 309 289 296 344 357 6 13 12 23 26 32 32 31 33 251 250 251 255 252 260 264 271 275 287
230 233 239 242 238 240 245 247 248 254 248 251 250 254 263 263 261 247 241 230 231 241 243 253 262 275 263 275 286 306 327 354 355 12 22 27 28 34 42 53 51 291 262 265 267 258 258 252 287
231 233 237 240 240 236 237 239 240 243 243 246 248 248 251 252 247 241 238 234 237 249 251 245 242 255 263 271 285 278 285 295 327 6 18 23 22 26 31 47 61 56 47 15 307 265 266 268 262
232 232 238 240 241 242 236 242 244 243 244 239 240 242 242 244 241 239 244 247 257 261 262 265 264 264 272 280 270 282 292 292 286 329 358 23 15 8 17 22 24 26 24 22 23 29 17 328 275
234 234 236 237 237 243 244 243 245 244 239 240 238 239 241 238 242 243 248 250 257 258 264 268 268 272 278 281 286 289 285 301 304 292 320 350 360 2 346 358 7 3 355 350 340 322 318 306 277
235 236 233 239 238 238 244 244 241 242 240 234 241 243 243 244 241 242 245 248 252 254 262 265 267 274 284 292 288 290 294 292 311 305 318 304 308 328 340 315 323 337 338 335 330 325 320 307 293
234 236 237 236 238 239 238 243 242 240 242 240 243 246 248 244 240 238 243 243 243 250 255 259 258 265 275 286 296 302 303 302 305 309 304 307 306 306 311 315 305 293 301 302 305 308 310 310 308
234 236 238 237 236 237 235 240 239 241 245 242 239 244 248 245 241 245 237 235 240 241 241 246 255 271 285 290 296 301 305 306 303 301 297 294 295 291 297 300 302 308 300 291 289 294 291 287 288
235 238 239 235 235 236 235 237 236 239 242 238 236 242 245 247 246 240 240 244 253 253 255 258 266 273 279 283 286 290 294 293 296 292 291 290 287 288 288 286 289 291 294 294 294 290 287 290 292
234 237 237 236 235 235 236 236 237 238 240 237 239 240 243 246 244 242 244 249 254 259 258 260 264 270 276 279 281 285 287 289 291 295 293 289 286 284 282 276 276 279 281 285 282 284 285 283 283
233 236 238 236 234 234 235 234 237 240 242 240 241 242 245 243 245 248 249 248 252 255 260 265 268 271 273 275 278 282 283 286 287 290 288 287 285 283 282 281 280 279 278 282 283 284 283 281 281
235 235 237 237 236 234 236 237 238 242 244 244 244 242 245 248 249 251 255 258 259 259 260 263 267 270 272 276 277 281 283 285 287 289 289 290 282 280 281 278 277 278 279 283 286 285 284 284 284
236 236 236 237 239 238 237 238 241 243 244 246 248 246 248 249 252 257 261 264 265 264 265 265 267 270 271 274 276 277 281 284 285 287 289 289 280 280 282 279 279 278 279 281 286 289 292 287 284
236 236 236 239 239 239 240 240 243 243 245 248 247 250 249 246 249 253 257 262 264 267 268 268 269 269 269 271 274 277 279 280 284 286 289 287 286 283 282 283 282 282 283 284 289 292 293 289 287
238 238 237 238 240 239 241 243 244 245 244 248 249 251 252 249 249 252 257 259 262 264 266 268 270 271 271 272 274 276 278 280 282 286 286 287 286 285 285 284 285 286 288 290 292 293 292 292 290
237 237 236 237 239 242 241 243 246 246 248 248 248 251 252 252 253 255 259 259 262 265 265 268 269 270 270 271 272 274 277 278 281 284 286 286 287 287 286 288 290 291 291 292 292 292 293 292 290
239 240 240 238 239 243 243 243 246 247 250 249 249 251 255 256 256 256 262 263 265 267 267 269 269 269 269 270 271 271 273 275 278 280 283 285 285 288 290 290 291 291 290 292 293 294 294 293 291
241 241 241 242 242 241 244 244 246 248 250 251 253 254 255 257 259 259 263 265 270 274 276 275 274 273 272 272 272 273 274 275 277 280 283 284 284 287 288 289 290 291 292 293 293 295 295 294 292
243 243 243 243 244 244 245 244 248 248 251 255 256 257 259 260 261 261 263 266 269 273 274 274 276 279 277 274 274 275 276 278 280 281 282 283 285 288 291 292 291 291 290 291 292 293 294 294 293
246 245 245 246 246 247 249 247 250 254 254 255 257 259 260 261 263 263 264 267 271 273 274 275 273 272 270 270 274 275 276 277 279 281 283 285 287 288 289 289 290 290 292 292 294 295 295 293 293
246 247 247 248 248 248 251 251 253 256 257 256 257 260 261 262 262 263 266 270 271 270 273 270 266 267 268 270 272 274 275 277 279 283 285 287 289 290 290 289 291 292 292 293 293 293 295 294 293
247 249 249 249 250 250 252 253 250 256 258 260 260 261 261 261 263 265 267 268 267 266 266 266 266 268 270 272 275 276 278 281 284 286 287 288 288 289 290 289 290 291 292 294 294 293 295 295 295
245 246 249 250 252 251 250 253 249 251 254 257 259 259 260 261 262 264 264 264 263 264 265 267 268 269 271 272 274 277 278 280 281 283 285 286 285 286 288 289 290 290 292 293 293 294 296 297 296
242 243 244 245 247 248 249 249 252 251 253 254 255 257 259 259 260 261 261 263 264 264 266 267 268 269 270 272 272 273 275 277 279 281 283 284 286 288 288 290 291 292 294 294 294 294 296 295 295
242 244 246 247 247 247 248 249 249 252 252 257 257 259 260 260 261 262 262 262 264 264 266 268 270 272 272 273 273 274 276 279 280 281 282 285 287 289 290 291 292 293 294 294 293 294 293 293 294
243 243 245 248 249 249 249 249 249 251 254 257 260 260 259 260 261 262 264 265 265 267 269 271 272 273 274 275 277 278 279 281 282 283 283 286 288 289 290 289 290 291 291 292 293 292 292 293 293
246 245 247 247 247 249 247 247 249 252 255 255 255 260 262 262 263 264 265 265 266 268 270 271 273 274 276 279 280 280 281 281 282 283 284 286 289 290 290 290 290 291 291 291 292 292 292 292 293
245 246 247 249 251 251 249 247 252 254 255 256 257 259 263 265 265 266 267 269 270 271 271 272 274 276 277 278 279 280 281 282 283 285 286 287 288 289 290 289 289 290 290 290 291 292 291 289 292
Height
10856 10858 10861 10865 10867 10870 10872 10874 10875 10878 10880 10882 10882 10884 10885 10885 10886 10887 10887 10888 10888 10889 10889 10888 10887 10887 10887 10886 10885 10885 10883 10881 10878 10875 10872 10870 10868 10868 10870 10872 10875 10876 10876 10877 10879 10879 10879 10880 10881
10852 10854 10857 10859 10862 10866 10868 10870 10873 10875 10877 10878 10880 10880 10882 10883 10884 10884 10885 10885 10885 10886 10887 10887 10887 10886 10886 10885 10884 10884 10883 10881 10879 10877 10874 10871 10869 10866 10867 10868 10870 10872 10874 10875 10876 10875 10876 10877 10878
10847 10849 10852 10855 10860 10860 10864 10867 10870 10872 10874 10875 10877 10878 10879 10880 10881 10881 10881 10882 10882 10883 10884 10884 10884 10884 10883 10883 10883 10882 10882 10881 10879 10877 10875 10872 10871 10869 10867 10867 10869 10870 10872 10873 10873 10874 10875 10875 10875
10842 10845 10848 10852 10854 10858 10861 10863 10866 10869 10871 10872 10874 10875 10877 10877 10878 10878 10878 10879 10879 10880 10881 10881 10881 10881 10880 10880 10880 10880 10880 10880 10878 10876 10875 10874 10872 10870 10869 10868 10869 10870 10870 10871 10871 10872 10872 10872 10872
10835 10840 10843 10847 10852 10855 10857 10860 10863 10866 10867 10869 10871 10872 10874 10875 10875 10876 10876 10877 10877 10878 10878 10878 10878 10877 10877 10878 10878 10878 10878 10877 10876 10876 10875 10874 10873 10872 10871 10870 10870 10870 10870 10870 10869 10869 10870 10869 10869
10829 10833 10838 10843 10847 10851 10853 10856 10859 10862 10863 10865 10867 10869 10870 10871 10872 10873 10874 10875 10875 10876 10876 10876 10876 10876 10876 10876 10875 10875 10875 10874 10874 10874 10874 10873 10873 10873 10872 10872 10870 10869 10868 10868 10869 10869 10869 10868 10868
10821 10825 10832 10837 10841 10846 10849 10851 10854 10857 10859 10861 10863 10865 10867 10868 10869 10871 10871 10872 10873 10872 10873 10873 10873 10874 10874 10873 10872 10872 10872 10872 10872 10872 10872 10871 10871 10871 10871 10871 10870 10870 10870 10869 10868 10868 10867 10868 10868
10813 10820 10823 10830 10836 10840 10845 10846 10849 10852 10855 10857 10859 10861 10863 10865 10866 10868 10869 10870 10870 10870 10870 10870 10870 10871 10871 10871 10870 10871 10871 10871 10870 10871 10871 10870 10870 10870 10870 10870 10869 10868 10868 10868 10868 10867 10867 10866 10866
10806 10812 10817 10823 10830 10834 10839 10840 10842 10846 10849 10852 10853 10855 10858 10860 10862 10864 10865 10866 10867 10867 10867 10867 10868 10868 10868 10868 10869 10869 10869 10869 10868 10868 10868 10868 10868 10868 10867 10867 10867 10866 10865 10865 10864 10864 10863 10863 10862
10799 10804 10809 10818 10823 10823 10832 10834 10836 10841 10844 10847 10848 10850 10853 10855 10857 10860 10862 10863 10863 10864 10865 10865 10865 10865 10866 10867 10867 10867 10867 10867 10866 10866 10865 10865 10865 10864 10864 10863 10863 10862 10862 10861 10861 10859 10859 10858 10857
10792 10795 10807 10807 10813 10817 10823 10827 10831 10834 10838 10840 10843 10845 10848 10851 10853 10855 10857 10858 10858 10859 10860 10861 10862 10862 10863 10863 10863 10863 10863 10863 10863 10863 10862 10862 10861 10860 10860 10860 10859 10858 10857 10857 10856 10856 10854 10853 10852
10783 10789 10796 10801 10805 10809 10815 10819 10824 10827 10831 10834 10837 10840 10842 10845 10848 10851 10852 10853 10853 10854 10855 10856 10857 10858 10859 10859 10858 10858 10858 10858 10858 10858 10858 10857 10857 10856 10855 10854 10853 10852 10851 10849 10849 10849 10848 10847 10846
10775 10781 10788 10793 10796 10802 10806 10810 10819 10821 10822 10828 10829 10833 10835 10838 10842 10845 10846 10846 10847 10848 10849 10851 10852 10853 10853 10853 10853 10852 10852 10852 10852 10852 10851 10851 10851 10850 10849 10849 10848 10846 10845 10844 10843 10841 10840 10839 10837
10765 10773 10778 10783 10786 10793 10797 10804 10811 10810 10815 10820 10822 10825 10827 10831 10836 10838 10838 10838 10840 10841 10843 10845 10846 10846 10847 10847 10846 10845 10845 10844 10845 10844 10844 10844 10844 10843 10842 10841 10841 10841 10838 10837 10835 10835 10833 10832 10830
10756 10760 10768 10775 10777 10784 10788 10796 10799 10800 10809 10812 10813 10817 10819 10822 10827 10830 10830 10830 10830 10832 10835 10836 10837 10838 10838 10838 10838 10837 10837 10836 10836 10836 10836 10835 10836 10835 10834 10833 10833 10832 10831 10829 10827 10826 10825 10822 10821
10739 10748 10761 10763 10765 10772 10776 10785 10783 10794 10800 10802 10806 10809 10809 10813 10818 10821 10821 10821 10819 10823 10825 10827 10828 10829 10829 10828 10828 10827 10827 10827 10826 10827 10826 10826 10827 10826 10826 10825 10824 10823 10821 10820 10818 10817 10814 10812 10811
10729 10740 10746 10749 10754 10757 10767 10771 10773 10783 10791 10792 10798 10799 10799 10804 10809 10813 10813 10808 10810 10813 10815 10817 10819 10818 10817 10817 10817 10817 10816 10815 10815 10813 10815 10815 10815 10815 10815 10813 10813 10812 10811 10809 10807 10804 10803 10800 10797
10713 10718 10726 10734 10740 10747 10756 10761 10763 10773 10778 10785 10787 10788 10788 10792 10798 10803 10800 10795 10800 10801 10803 10804 10805 10806 10806 10806 10805 10805 10804 10803 10803 10803 10799 10802 10799 10801 10802 10802 10800 10799 10797 10793 10792 10790 10789 10786 10783
10699 10709 10715 10719 10728 10735 10744 10749 10752 10761 10767 10773 10774 10776 10778 10781 10784 10794 10785 10784 10789 10788 10790 10791 10792 10792 10792 10793 10793 10792 10792 10791 10790 10790 10789 10786 10787 10787 10787 10786 10785 10784 10782 10778 10774 10773 10772 10770 10766
10689 10695 10700 10706 10714 10720 10726 10739 10739 10752 10756 10757 10764 10766 10766 10768 10770 10780 10772 10773 10775 10776 10778 10778 10778 10778 10778 10778 10778 10778 10779 10778 10778 10777 10775 10772 10770 10771 10770 10769 10769 10767 10766 10764 10759 10756 10754 10753 10747
10675 10682 10684 10690 10699 10708 10709 10728 10730 10738 10745 10751 10751 10748 10752 10753 10755 10763 10759 10759 10762 10764 10765 10765 10765 10765 10763 10763 10762 10763 10763 10763 10762 10762 10760 10758 10755 10752 10753 10751 10750 10748 10747 10746 10743 10739 10736 10734 10730
10661 10664 10666 10674 10685 10692 10693 10717 10723 10726 10733 10738 10735 10735 10737 10740 10740 10744 10743 10744 10747 10748 10749 10751 10750 10749 10748 10749 10749 10748 10748 10746 10746 10745 10744 10741 10742 10738 10735 10733 10731 10728 10726 10725 10723 10719 10716 10713 10710
10642 10646 10655 10661 10668 10672 10683 10694 10716 10712 10719 10721 10719 10721 10721 10725 10720 10723 10727 10728 10730 10732 10732 10731 10731 10732 10733 10733 10733 10733 10732 10731 10729 10728 10727 10725 10723 10721 10717 10714 10711 10708 10706 10703 10701 10699 10694 10689 10686
10627 10633 10638 10641 10644 10662 10668 10675 10706 10700 10701 10703 10704 10705 10705 10706 10704 10707 10709 10711 10711 10713 10714 10716 10716 10717 10717 10716 10716 10715 10714 10712 10711 10711 10709 10707 10704 10702 10699 10696 10693 10690 10686 10682 10678 10674 10670 10665 10660
10611 10616 10619 10620 10628 10654 10652 10653 10693 10682 10686 10684 10684 10686 10687 10689 10689 10690 10691 10692 10692 10694 10697 10698 10699 10698 10699 10698 10697 10696 10694 10693 10692 10691 10688 10685 10682 10680 10677 10674 10672 10668 10664 10660 10657 10651 10645 10639 10632
10585 10590 10592 10595 10607 10619 10623 10652 10666 10672 10670 10667 10664 10670 10671 10672 10671 10669 10669 10672 10675 10677 10677 10679 10678 10678 10679 10679 10677 10675 10673 10672 10670 10668 10665 10661 10658 10656 10653 10650 10647 10645 10641 10636 10631 10626 10621 10613 10607
10567 10578 10574 10573 10585 10595 10614 10638 10646 10653 10652 10648 10655 10655 10653 10648 10650 10650 10650 10653 10654 10654 10657 10660 10661 10661 10660 10658 10656 10655 10653 10652 10650 10646 10642 10639 10636 10632 10628 10624 10621 10618 10614 10608 10603 10598 10593 10586 10580
10550 10553 10552 10561 10571 10575 10604 10607 10629 10628 10630 10629 10632 10630 10635 10631 10630 10629 10631 10631 10631 10634 10637 10638 10638 10637 10636 10635 10635 10633 10630 10628 10625 10621 10619 10616 10613 10609 10604 10599 10594 10591 10587 10583 10577 10569 10562 10557 10550
10524 10529 10534 10533 10542 10553 10577 10590 10607 10610 10610 10610 10609 10612 10610 10610 10606 10607 10609 10608 10611 10614 10615 10613 10614 10613 10613 10613 10611 10609 10605 10602 10600 10598 10596 10593 10589 10583 10578 10573 10569 10564 10560 10555 10547 10540 10533 10526 10519
10501 10514 10510 10512 10532 10531 10539 10574 10594 10593 10588 10587 10589 10593 10590 10588 10588 10584 10583 10586 10588 10588 10587 10589 10591 10591 10590 10589 10587 10583 10578 10575 10574 10571 10567 10563 10559 10554 10548 10544 10540 10536 10532 10524 10517 10509 10503 10495 10488